This is the latest recevied weather packets stored in our database for station/object HP1MRA-15. If no packets are shown the sender has not sent any weather packets the latest 10 day(s).
| Time | Temp. | Humidity | Pressure | Rain* | Wind** | Luminosity | Snow |
|---|---|---|---|---|---|---|---|
| 1778260619 | 37.22° C | 48% | 1000.9 hPa | 0 mm | - | - | - |
| 1778260319 | 36.67° C | 50% | 1001.1 hPa | 0 mm | - | - | - |
| 1778260019 | 36.67° C | 50% | 1001.3 hPa | 0 mm | - | - | - |
| 1778259719 | 36.67° C | 53% | 1001.3 hPa | 0 mm | - | - | - |
| 1778259419 | 36.11° C | 52% | 1001.4 hPa | 0 mm | - | - | - |
| 1778259119 | 36.11° C | 54% | 1001.5 hPa | 0 mm | - | - | - |
| 1778258819 | 35.56° C | 54% | 1001.6 hPa | 0 mm | - | - | - |
| 1778258519 | 35.56° C | 55% | 1001.6 hPa | 0 mm | - | - | - |
| 1778258218 | 35.56° C | 53% | 1001.7 hPa | 0 mm | - | - | - |
| 1778257919 | 35.56° C | 53% | 1001.7 hPa | 0 mm | - | - | - |
| 1778257619 | 36.11° C | 53% | 1001.8 hPa | 0 mm | - | - | - |
| 1778257319 | 36.67° C | 52% | 1001.8 hPa | 0 mm | - | - | - |
| 1778257019 | 36.67° C | 52% | 1001.8 hPa | 0 mm | - | - | - |
| 1778256719 | 35.56° C | 55% | 1001.8 hPa | 0 mm | - | - | - |
| 1778256419 | 35.56° C | 53% | 1001.9 hPa | 0 mm | - | - | - |
| 1778256118 | 36.11° C | 54% | 1001.9 hPa | 0 mm | - | - | - |
| 1778255819 | 35.56° C | 55% | 1001.9 hPa | 0 mm | - | - | - |
| 1778255519 | 35.56° C | 55% | 1002.1 hPa | 0 mm | - | - | - |
| 1778255218 | 35° C | 56% | 1001.9 hPa | 0 mm | - | - | - |
| 1778254919 | 34.44° C | 56% | 1002.1 hPa | 0 mm | - | - | - |
| 1778254619 | 34.44° C | 57% | 1002 hPa | 0 mm | - | - | - |
| 1778254318 | 33.89° C | 57% | 1001.9 hPa | 0 mm | - | - | - |
| 1778254019 | 34.44° C | 56% | 1001.8 hPa | 0 mm | - | - | - |
| 1778253718 | 35° C | 57% | 1001.8 hPa | 0 mm | - | - | - |
| 1778253418 | 33.89° C | 60% | 1001.9 hPa | 0 mm | - | - | - |
* Rain latest hour (hover to see other rain measurements)
** Current wind speed in m/s (hover to see current wind gust speed)